Orbital Elements at Epoch 2459000.5 (2020-May-31.0) TDB
Reference: JPL 23 (heliocentric ecliptic J2000)
Element | Value | Uncertainty (1-sigma) | Units |
e | .2056580533140387 | 5.2467e-08 | |
a | 2.542615772249717 | 8.9249e-09 | au |
q | 2.019706362203269 | 1.3557e-07 | au |
i | 2.953063316208377 | 3.0001e-06 | deg |
node | 69.8105815118226 | 9.5649e-05 | deg |
peri | 296.7905625037528 | 9.5931e-05 | deg |
M | 139.0575146808742 | 8.7462e-06 | deg |
tp | 2458428.479630425111 (2018-Nov-05.97963043) | 3.4418e-05 | TDB |
period | 1480.878854476484 4.05 | 7.7971e-06 2.135e-08 | d yr |
n | .2430988861187204 | 1.28e-09 | deg/d |
Q | 3.065525182296164 | 1.076e-08 | au |
|
| | Orbit Determination Parameters
Additional Information
|